Texas Center Summer OLR - Loft fly

Station: LOFT INVENTORY - T Race

Distance: 1 Miles

Release: 08-May-2022 07:45

Weather Release:    Arrival:

Wind at Release:     Wind at Arrival:

Temp at Release: °    Temp at Arrival: °

Lofts: 66

Birds: 238

Clocked: 240

Good Luck to Everyone!
Drops Pos Breeder Pigeon Name Color Sex Ent Arrival Speed To Win Elg Pd
1 Jesse Loft - AL 0695-AU22-NWFI BC H 1 08:10:53.90 67.958 00:00:00 Yes
2 Frank McLaughlin - MA 0710-AU22-MCLO DC H 1 08:10:54.60 67.927 00:00:01 Yes
3 Unassigned-Oneloft - OR 22011-AU22-NESN BC 0 1 08:10:55.00 67.910 00:00:01 Yes
4 Baudy Loft - LA 22207-AU22-MET GRIZ H 1 08:10:55.70 67.879 00:00:02 Yes
5 Two Cousins - LA 4212-AU22-BAYO GRIZ H 1 08:10:56.80 67.831 00:00:03 Yes
6 Two Cousins - LA 4211-AU22-BAYO RC H 2 08:10:57.30 67.810 00:00:03 Yes
7 John Reed Loft - 2202-AU22-REED BB H 1 08:10:59.40 67.718 00:00:06 Yes
8 Dominic's Loft - TX 1412-AU22-HOT GRIZ B 1 08:10:59.90 67.697 00:00:06 Yes
9 C F L - LA 2017-AU22-CFL BC A 1 08:11:01.60 67.623 00:00:08 Yes
10 Quest - Any Given Day Loft - TX 22066-AU22-ANYG BB H 1 08:11:04.40 67.502 00:00:10 Yes
11 Flying Tigers Loft - TX 1631-AU22-DALL BB H 1 08:11:05.90 67.437 00:00:12 Yes
12 Cajun Express Loft - LA 0260-AU22-CAJU BC H 1 08:11:08.90 67.308 00:00:15 Yes
13 Texstar Loft - TX 2203-AU22-TXST BB 0 1 08:11:21.50 66.772 00:00:28 Yes
14 Tx Lin Loft - TX 0111-AU22-TXLI BBWF B 1 08:11:21.90 66.755 00:00:28 Yes
15 Dominic's Loft - TX 1422-AU22-HOT GRIZ B 2 08:11:22.60 66.726 00:00:29 Yes
16 Dobelbower Family Loft - OK 0308-AU22-TULS BC H 1 08:11:23.50 66.688 00:00:30 Yes
17 Johnson / Perron - LA 0353-AU22-LAF BC B 1 08:11:24.00 66.667 00:00:30 Yes
18 Flying Tigers Loft - TX 3087-AU22-TEXA BC H 2 08:11:24.70 66.637 00:00:31 Yes
19 Rocking R - TX 4391-AU22-VPR GRIZ A 1 08:11:25.80 66.591 00:00:32 Yes
20 Flocking Off Loft - TX 3002-IF22-FOLO BB A 1 08:11:26.60 66.557 00:00:33 Yes
20 Half Breed Syndicate - TX 0703-AU22-BTC BB A 1 08:11:26.60 66.557 00:00:33 Yes
22 Carr Loft - TX 0936-AU22-WF BB H 1 08:11:27.20 66.532 00:00:33 Yes
22 Vick Corso - LA 0106-AU22-HVRP BB A 1 08:11:27.20 66.532 00:00:33 Yes
24 Ed Minvielle - LA 22036-AU22-A BB A 1 08:11:27.70 66.511 00:00:34 Yes
25 C F L - LA 2019-AU22-CFL BB B 2 08:11:27.80 66.507 00:00:34 Yes
26 Kenny Kelley - TX 0315-AU22-DENT BC A 1 08:11:28.30 66.486 00:00:34 Yes
27 Unassigned-Oneloft - OR 5035-AU22-ARPU BB 0 2 08:11:28.80 66.465 00:00:35 Yes
28 Two Cousins - LA 4210-AU22-BAYO RC H 3 08:11:28.90 66.461 00:00:35 Yes
Bruce Daehn - FL 0206-AU22-NWFI DCWF H 08:11:29.40 66.440 Yes
29 Unassigned-Oneloft - OR 22021-AU22-NESN BBWF 0 3 08:11:29.50 66.436 00:00:36 Yes
30 Brush Loft - LA 18688-AU22-AA BB H 1 08:11:30.20 66.407 00:00:36 Yes
31 Half Breed Syndicate - TX 0702-AU22-BTC BB A 2 08:11:30.70 66.386 00:00:37 Yes
31 Hollywood Honey - CA 22093-AU22-LEGU BC H 1 08:11:30.70 66.386 00:00:37 Yes
31 Danny Lum - HI 1203-IF22-FSC GRIZ A 1 08:11:30.70 66.386 00:00:37 Yes
34 Unassigned-Oneloft - OR 22211-AU22-MET DC 0 4 08:11:31.30 66.361 00:00:37 Yes
35 Frank McLaughlin - MA 1409-AU22-MCLO BC H 2 08:11:31.80 66.340 00:00:38 Yes
36 Flocking Off Loft - TX 3006-IF22-FOLO BB 0 2 08:11:31.90 66.336 00:00:38 Yes
36 Nesneb Racing Loft - AL 22008-AU22-NESN BB B 1 08:11:31.90 66.336 00:00:38 Yes
36 Ron Talbot /Jimmy Fernandez - LA 4069-AU22-BAYO BC A 1 08:11:31.90 66.336 00:00:38 Yes
36 The New Orleans Boys - LA 22251-AU22-MET BC B 1 08:11:31.90 66.336 00:00:38 Yes
40 Pigeon Palace - LA 0804-AU22-LAF BB B 1 08:11:32.60 66.307 00:00:39 Yes
40 Courville Family Loft - LA 12502-AU22-AA GRIZ A 1 08:11:32.60 66.307 00:00:39 Yes
40 Courville Family Loft - LA 12492-AU22-AA BC A 2 08:11:32.60 66.307 00:00:39 Yes
43 Frank McLaughlin - MA 0714-AU22-MCLO BBWF H 3 08:11:32.70 66.303 00:00:39 Yes
43 Hi-Cal Connection - CA 0801-AU22-HICA BC B 1 08:11:32.70 66.303 00:00:39 Yes
45 Unassigned-Oneloft - OR 0357-AU22-WACO BB 0 5 08:11:33.30 66.278 00:00:39 Yes
45 Mark Scott - AL 15188-AU22-FOYS GRZ H 1 08:11:33.30 66.278 00:00:39 Yes
47 Tx Lin Loft - TX 0105-AU22-TXLI BC B 2 08:11:33.90 66.253 00:00:40 Yes
48 The New Orleans Boys - LA 22257-AU22-MET GRZ H 2 08:11:34.40 66.232 00:00:40 Yes
48 Baudy Loft - LA 22203-AU22-MET DC H 2 08:11:34.40 66.232 00:00:40 Yes
50 5G Branton Racing - TX 4805-AU22-VPR BB B 1 08:11:35.00 66.207 00:00:41 Yes
50 Bobby Brown - TX 0416-AU22-WF BB A 1 08:11:35.00 66.207 00:00:41 Yes
52 Double L Loft - TX 0411-IF22-DOUB DC A 1 08:11:36.00 66.165 00:00:42 Yes
53 Double L Loft - TX 0400-IF22-DOUB BCWF A 2 08:11:36.30 66.153 00:00:42 Yes
54 The New Orleans Boys - LA 22209-AU22-MET BB H 3 08:11:36.40 66.149 00:00:42 Yes
55 Unassigned-Oneloft - OR 5039-AU22-ARPU BB 0 6 08:11:36.90 66.128 00:00:43 Yes
56 Bunn Loft - TX 1704-AU22-SAF BB H 1 08:11:37.40 66.107 00:00:44 Yes
57 The New Orleans Boys - LA 22206-AU22-MET DC H 4 08:11:37.50 66.103 00:00:44 Yes
Freebyrd Loft - LA 12840-AU22-AA 04287 X 1092 BB H 08:11:37.90 66.087 Yes
58 Scott Sorge - TX 0101-AU22-WF BB H 1 08:11:38.10 66.078 00:00:44 Yes
59 Ed Minvielle - LA 22114-AU22-A BC H 2 08:11:38.20 66.074 00:00:44 Yes
60 Louie Cargiulo Loft - 0715-AU22-AONE BC A 1 08:11:38.70 66.054 00:00:45 Yes
61 Ledet-Gutrz - LA 22094-AU22-LEGU BC H 1 08:11:38.80 66.050 00:00:45 Yes
62 Mark Scott - AL 15186-AU22-FOYS BB H 2 08:11:39.90 66.004 00:00:46 Yes
62 Siegels Girls - LA 22112-AU22-A BC H 1 08:11:39.90 66.004 00:00:46 Yes
64 Rocky Mountain Racing - UT 22626-AU22-RMR BC B 1 08:11:40.40 65.984 00:00:46 Yes
65 Flying Tigers Loft - TX 3003-AU22-TEXA BC B 3 08:11:41.00 65.959 00:00:47 Yes
65 Lonestar Loft - TX 0042-AU22-DENT BB B 1 08:11:41.00 65.959 00:00:47 Yes
67 Jones Family Loft - TX 2221-AU22-JFL DC H 1 08:11:41.10 65.955 00:00:47 Yes
68 Half Breed Syndicate - TX 0701-AU22-BTC BB B 3 08:11:41.60 65.934 00:00:48 Yes
69 Texstar Loft - TX 2201-AU22-TXST BB 0 2 08:11:42.20 65.909 00:00:48 Yes
70 Pigeon Palace - LA 0818-AU22-LAF BB B 2 08:11:42.50 65.897 00:00:49 Yes
71 Frank McLaughlin - MA 0810-AU22-MCLO BB H 4 08:11:42.60 65.893 00:00:49 Yes
71 Dominic's Loft - TX 1423-AU22-HOT GRIZ A 3 08:11:42.60 65.893 00:00:49 Yes
73 B & J Loft - FL 0692-AU22-NWFI BC A 1 08:11:43.20 65.868 00:00:49 Yes
74 Unassigned-Oneloft - OR 22014-AU22-NESN BB 0 7 08:11:43.70 65.848 00:00:50 Yes
75 Baudy Loft - LA 22210-AU22-MET DC H 3 08:11:43.80 65.844 00:00:50 Yes
76 Hollywood Honey - CA 22009-AU22-LEGU BC B 2 08:11:44.30 65.823 00:00:50 Yes
77 Rocky Mountain Racing - UT 22010-AU22-RMR BC B 2 08:11:44.90 65.798 00:00:51 Yes
78 Johnson / Perron - LA 0358-AU22-LAF BC A 2 08:11:45.40 65.778 00:00:51 Yes
78 Pigeon Palace - LA 0805-AU22-LAF BB 0 3 08:11:45.40 65.778 00:00:51 Yes
80 Perron/Wallett - LA 0603-AU22-LAF BC A 1 08:11:45.50 65.774 00:00:52 Yes
81 Flying D Loft - TX 1606-IF22-FLYD Olympic TEX = FLYD 1409 BB B 1 08:11:46.10 65.749 00:00:52 Yes
81 Two Cousins - LA 4209-AU22-BAYO DCWF H 4 08:11:46.10 65.749 00:00:52 Yes
81 Bandit Loft - TX 0021-AU22-BAND GRZ H 1 08:11:46.10 65.749 00:00:52 Yes
84 Kenny Kelley - TX 0306-AU22-DENT GRIZ B 2 08:11:46.70 65.725 00:00:53 Yes
84 Nesneb Racing Loft - AL 22006-AU22-NESN BB A 2 08:11:46.70 65.725 00:00:53 Yes
86 Danny Lum - HI 1206-IF22-FSC BC A 2 08:11:47.30 65.700 00:00:53 Yes
87 Ted Evans - OK 0510-AU22-WF BB A 1 08:11:47.40 65.696 00:00:54 Yes
88 Unassigned-Oneloft - OR 0341-AU22-WACO DC 0 8 08:11:47.90 65.676 00:00:54 Yes
89 C F L - LA 2013-AU22-CFL BB B 3 08:11:48.00 65.672 00:00:54 Yes
90 Elk Creek Loft - OK 17101-AU22-ARPU BBWF A 1 08:11:48.50 65.651 00:00:55 Yes
90 Kenny Kelley - TX 0301-AU22-DENT BC B 3 08:11:48.50 65.651 00:00:55 Yes
92 Bionic Loft - LA 0221-AU22-CAJU BB H 1 08:11:49.10 65.627 00:00:55 Yes
92 Rick Barker - CA 0201-AU22-VIP BB H 1 08:11:49.10 65.627 00:00:55 Yes
94 Bandit Loft - TX 0018-AU22-BAND BC H 2 08:11:49.70 65.602 00:00:56 Yes
95 Mark Scott - AL 7623-AU22-VITA CHOC B 3 08:11:50.30 65.578 00:00:56 Yes
95 The New Orleans Boys - LA 22202-AU22-MET BC H 5 08:11:50.30 65.578 00:00:56 Yes
97 Unassigned-Oneloft - OR 5033-AU22-ARPU BB 0 9 08:11:51.30 65.537 00:00:57 Yes
98 Jeremy Allen Loft - LA 0303-AU22-LAF BC B 1 08:11:51.80 65.517 00:00:58 Yes

There are 240 bird records

Note: These Race Results are unofficial and subject to change until verified by the Race Committee and declared final.

 

windy